Flag for Germany Weather past 2 weeks in Sindelfingen, Baden-Württemberg, Germany

Now
66 °F

Broken clouds.


Feels Like: 66 °F
Forecast: 52 / 59 °F
Wind: 17 mph from Southwest

Location: Stuttgart-Echterdingen

Current Time: Jul 28, 2015 at 10:39:03 AM

Latest Report: Jul 28, 2015 at 10:20 AM


Visibility: N/A

Pressure: 29.86 "Hg

Humidity: 49%

Dew point: 46 °F

Location of SindelfingenLocation

Historic Weather in Sindelfingen — Graph

°F

Sindelfingen temperature yesterday

Maximum temperature yesterday: 72 °F (at 2:50 PM)
Minimum temperature yesterday: 59 °F (at 3:50 AM)
Average temperature yesterday: 65 °F

Past Weeks' High & Low Weather Summary

 TemperatureHumidityPressure
High95 °F (Jul 22, 2:20 PM)94% (Jul 23, 1:50 AM)30.15 "Hg (Jul 23, 1:50 AM)
Low48 °F (Jul 26, 5:50 AM)26% (Jul 16, 5:20 PM)29.71 "Hg (Jul 24, 7:20 PM)
Average72 °F61%29.98 "Hg
* Reported Jul 13 9:20 AM — Jul 28 9:20 AM, Sindelfingen, Weather by CustomWeather, © 2015

Note: Actual official high and low records may vary slightly from our data, if they occured in-between our weather recording intervals... More about our weather records

Advertising

Sindelfingen weather history for previous 24 hours

 ConditionsComfort  
Time TempWeatherWind HumidityBarometerVisibility
9:20 AM
Tue, Jul 28
64 °FPartly sunny.16 mph56%29.86 "HgN/A
8:50 AM64 °FPartly sunny.13 mph56%29.86 "HgN/A
8:20 AM64 °FBroken clouds.9 mph56%29.83 "HgN/A
7:50 AM64 °FBroken clouds.9 mph56%29.83 "HgN/A
7:20 AM63 °FBroken clouds.6 mph64%29.83 "HgN/A
6:50 AM63 °FPartly cloudy.7 mph68%29.83 "HgN/A
6:20 AM63 °FPassing clouds.3 mph68%29.80 "HgN/A
5:50 AM63 °FScattered showers. Partly cloudy.6 mph64%29.80 "HgN/A
5:20 AM63 °FPartly cloudy.7 mph64%29.80 "HgN/A
4:50 AM63 °FPassing clouds.3 mph64%29.80 "HgN/A
4:20 AM63 °FPassing clouds.6 mph64%29.80 "HgN/A
3:50 AM63 °FScattered showers. Passing clouds.8 mph64%29.80 "HgN/A
3:20 AM64 °FScattered showers. Passing clouds.9 mph56%29.80 "HgN/A
2:50 AM64 °FPassing clouds.7 mph56%29.80 "HgN/A
2:20 AM63 °FPassing clouds.6 mph64%29.80 "HgN/A
1:50 AM63 °FPassing clouds.6 mph59%29.80 "HgN/A
1:20 AM63 °FPassing clouds.3 mph59%29.83 "HgN/A
12:50 AM63 °FPassing clouds.6 mph59%29.83 "HgN/A
12:20 AM63 °FPassing clouds.6 mph59%29.83 "HgN/A
11:50 PM
Mon, Jul 27
63 °FPassing clouds.5 mph56%29.83 "HgN/A
11:20 PM63 °FPassing clouds.5 mph56%29.83 "HgN/A
10:50 PM63 °FPassing clouds.6 mph56%29.83 "HgN/A
10:20 PM64 °FClear.2 mph52%29.83 "Hg10 mi
9:50 PM66 °FPassing clouds.3 mph49%29.83 "HgN/A
9:20 PM66 °FPassing clouds.5 mph49%29.83 "HgN/A
8:50 PM68 °FPassing clouds.7 mph43%29.83 "HgN/A
8:20 PM68 °FPassing clouds.13 mph43%29.83 "HgN/A
7:50 PM70 °FPassing clouds.14 mph40%29.80 "HgN/A
7:20 PM70 °FPassing clouds.18 mph43%29.80 "HgN/A
6:50 PM70 °FPassing clouds.20 mph40%29.80 "HgN/A
6:20 PM72 °FSunny.23 mph38%29.80 "Hg10 mi
5:50 PM70 °FSunny.22 mph43%29.80 "Hg10 mi
5:20 PM70 °FPassing clouds.17 mph43%29.80 "HgN/A
4:50 PM70 °FScattered clouds.18 mph46%29.80 "HgN/A
4:20 PM68 °FScattered clouds.18 mph53%29.80 "HgN/A
3:50 PM70 °FScattered clouds.18 mph53%29.80 "HgN/A
3:20 PM64 °FSprinkles. Scattered clouds.18 mph73%29.77 "HgN/A
2:50 PM72 °FScattered clouds.21 mph53%29.77 "HgN/A
2:20 PM68 °FScattered clouds.17 mph64%29.77 "HgN/A
1:50 PM68 °FScattered clouds.14 mph60%29.77 "HgN/A
1:20 PM68 °FScattered clouds.14 mph64%29.77 "HgN/A
12:50 PM66 °FPartly sunny.13 mph68%29.77 "HgN/A
12:20 PM63 °FSprinkles. Partly sunny.13 mph77%29.80 "HgN/A
11:50 AM64 °FSprinkles. Partly sunny.14 mph73%29.77 "HgN/A
11:20 AM66 °FPartly sunny.14 mph64%29.77 "HgN/A
10:50 AM68 °FPartly sunny.13 mph60%29.74 "HgN/A
10:20 AM68 °FScattered clouds.14 mph60%29.74 "HgN/A
Weather by CustomWeather, © 2015

See weather overviewHow to use our weather pages